QPF
0.19 0.17 0.13 0.11 0.13 0.16 0.17 0.13 0.06 0.03 0.01 0.00 0.00 0.00 0.00 0.00 0.00 0.00 0.00 0.01 0.03 0.03 0.02 0.01 0.00 0.00 0.00 0.01 0.01 0.01 0.00 0.01 0.03 0.03 0.04 0.04 0.03 0.01 0.01 0.01 0.00 0.00 0.01
0.16 0.19 0.18 0.13 0.11 0.16 0.20 0.21 0.15 0.07 0.04 0.02 0.00 0.00 0.00 0.00 0.00 0.00 0.00 0.00 0.01 0.01 0.02 0.01 0.00 0.00 0.00 0.01 0.01 0.01 0.01 0.01 0.01 0.02 0.02 0.03 0.03 0.02 0.01 0.00 0.00 0.01 0.01
0.12 0.16 0.17 0.13 0.09 0.13 0.21 0.26 0.26 0.13 0.06 0.04 0.01 0.00 0.00 0.00 0.00 0.01 0.01 0.00 0.00 0.01 0.01 0.01 0.00 0.00 0.00 0.01 0.01 0.01 0.01 0.01 0.01 0.01 0.01 0.02 0.02 0.02 0.01 0.01 0.01 0.01 0.01
0.04 0.07 0.12 0.13 0.13 0.14 0.19 0.28 0.33 0.27 0.12 0.06 0.03 0.01 0.00 0.00 0.00 0.01 0.01 0.00 0.00 0.00 0.01 0.01 0.01 0.00 0.00 0.00 0.01 0.01 0.01 0.01 0.01 0.01 0.01 0.02 0.02 0.02 0.01 0.01 0.01 0.01 0.01
0.03 0.04 0.06 0.09 0.12 0.14 0.14 0.20 0.28 0.30 0.23 0.12 0.06 0.03 0.01 0.00 0.00 0.01 0.02 0.01 0.00 0.00 0.00 0.00 0.01 0.00 0.00 0.00 0.00 0.01 0.01 0.01 0.01 0.01 0.01 0.01 0.01 0.02 0.02 0.01 0.01 0.01 0.01
0.03 0.03 0.04 0.07 0.10 0.12 0.13 0.17 0.24 0.26 0.24 0.21 0.14 0.07 0.03 0.01 0.01 0.01 0.02 0.02 0.01 0.00 0.00 0.00 0.00 0.00 0.00 0.00 0.00 0.01 0.01 0.01 0.01 0.02 0.02 0.01 0.01 0.01 0.02 0.02 0.01 0.01 0.01
0.01 0.02 0.03 0.04 0.06 0.06 0.10 0.17 0.22 0.26 0.26 0.27 0.24 0.16 0.08 0.04 0.02 0.03 0.03 0.02 0.01 0.01 0.01 0.00 0.00 0.00 0.00 0.00 0.00 0.01 0.01 0.01 0.02 0.02 0.03 0.02 0.02 0.02 0.02 0.02 0.01 0.02 0.02
0.01 0.01 0.02 0.03 0.03 0.04 0.06 0.11 0.16 0.20 0.25 0.27 0.27 0.27 0.18 0.09 0.03 0.02 0.03 0.02 0.02 0.01 0.01 0.01 0.00 0.00 0.00 0.00 0.00 0.00 0.01 0.01 0.02 0.02 0.03 0.03 0.02 0.01 0.02 0.01 0.01 0.02 0.02
0.00 0.01 0.01 0.02 0.02 0.02 0.03 0.05 0.08 0.12 0.19 0.25 0.27 0.32 0.26 0.16 0.10 0.06 0.04 0.04 0.04 0.03 0.02 0.02 0.01 0.00 0.00 0.00 0.00 0.00 0.00 0.01 0.02 0.03 0.04 0.04 0.03 0.02 0.01 0.01 0.01 0.02 0.01
0.01 0.01 0.01 0.02 0.02 0.02 0.02 0.03 0.06 0.07 0.11 0.16 0.21 0.25 0.26 0.22 0.20 0.14 0.09 0.06 0.06 0.05 0.05 0.04 0.03 0.02 0.01 0.00 0.00 0.00 0.00 0.00 0.01 0.04 0.06 0.06 0.04 0.03 0.02 0.01 0.01 0.01 0.01
0.02 0.02 0.02 0.03 0.03 0.03 0.03 0.04 0.06 0.07 0.08 0.08 0.12 0.18 0.26 0.28 0.23 0.17 0.14 0.09 0.06 0.06 0.07 0.07 0.07 0.06 0.04 0.03 0.01 0.00 0.00 0.01 0.01 0.03 0.07 0.08 0.06 0.05 0.03 0.02 0.01 0.01 0.01
0.01 0.01 0.02 0.02 0.03 0.03 0.04 0.05 0.07 0.08 0.09 0.09 0.09 0.10 0.14 0.21 0.24 0.22 0.17 0.12 0.09 0.07 0.08 0.08 0.07 0.07 0.07 0.05 0.04 0.04 0.01 0.02 0.02 0.04 0.06 0.08 0.07 0.05 0.04 0.02 0.01 0.01 0.01
0.01 0.01 0.02 0.03 0.04 0.04 0.05 0.06 0.07 0.07 0.09 0.11 0.11 0.10 0.11 0.12 0.17 0.23 0.24 0.20 0.14 0.09 0.08 0.06 0.06 0.07 0.07 0.05 0.06 0.07 0.04 0.03 0.04 0.05 0.06 0.07 0.06 0.06 0.04 0.03 0.02 0.02 0.03
0.02 0.02 0.03 0.04 0.06 0.07 0.08 0.08 0.08 0.09 0.10 0.11 0.12 0.14 0.16 0.15 0.17 0.20 0.22 0.25 0.22 0.13 0.07 0.05 0.05 0.05 0.07 0.06 0.07 0.09 0.06 0.05 0.05 0.06 0.07 0.08 0.07 0.06 0.04 0.03 0.03 0.03 0.04
0.04 0.03 0.04 0.06 0.06 0.08 0.09 0.09 0.08 0.08 0.11 0.13 0.14 0.16 0.18 0.19 0.22 0.22 0.23 0.23 0.24 0.20 0.11 0.05 0.04 0.04 0.06 0.07 0.08 0.09 0.09 0.07 0.06 0.07 0.07 0.06 0.06 0.05 0.04 0.03 0.02 0.02 0.03
0.03 0.04 0.04 0.04 0.05 0.07 0.07 0.07 0.08 0.09 0.09 0.09 0.12 0.15 0.17 0.20 0.22 0.24 0.26 0.28 0.26 0.23 0.18 0.11 0.08 0.07 0.08 0.08 0.09 0.09 0.12 0.13 0.10 0.08 0.08 0.06 0.05 0.04 0.03 0.03 0.02 0.02 0.02
0.01 0.01 0.02 0.02 0.03 0.03 0.04 0.06 0.08 0.09 0.08 0.09 0.11 0.13 0.14 0.19 0.20 0.21 0.25 0.28 0.30 0.29 0.22 0.17 0.13 0.10 0.09 0.08 0.09 0.10 0.12 0.13 0.13 0.11 0.09 0.07 0.07 0.04 0.03 0.03 0.02 0.02 0.02
0.00 0.00 0.00 0.01 0.01 0.01 0.01 0.03 0.07 0.09 0.08 0.08 0.10 0.11 0.12 0.13 0.15 0.18 0.21 0.24 0.28 0.32 0.30 0.27 0.21 0.15 0.11 0.11 0.12 0.13 0.13 0.14 0.16 0.16 0.13 0.10 0.08 0.06 0.04 0.03 0.02 0.02 0.02
0.00 0.00 0.00 0.00 0.00 0.00 0.01 0.02 0.03 0.07 0.08 0.07 0.07 0.07 0.08 0.09 0.10 0.15 0.17 0.20 0.25 0.30 0.31 0.31 0.29 0.22 0.18 0.15 0.15 0.14 0.13 0.15 0.16 0.17 0.16 0.11 0.08 0.05 0.03 0.03 0.02 0.02 0.01
0.00 0.00 0.00 0.00 0.00 0.00 0.00 0.00 0.01 0.02 0.04 0.04 0.04 0.04 0.04 0.06 0.07 0.09 0.14 0.17 0.21 0.26 0.30 0.31 0.31 0.28 0.24 0.19 0.15 0.16 0.15 0.13 0.12 0.11 0.11 0.09 0.07 0.05 0.04 0.03 0.03 0.02 0.02
0.00 0.00 0.00 0.00 0.00 0.00 0.00 0.01 0.01 0.01 0.02 0.03 0.02 0.02 0.02 0.04 0.05 0.07 0.09 0.12 0.15 0.20 0.23 0.27 0.29 0.28 0.26 0.22 0.17 0.13 0.13 0.14 0.12 0.08 0.08 0.07 0.05 0.05 0.06 0.05 0.05 0.05 0.04
0.00 0.00 0.00 0.00 0.00 0.00 0.00 0.01 0.01 0.00 0.01 0.01 0.01 0.01 0.01 0.02 0.03 0.05 0.07 0.09 0.13 0.15 0.15 0.17 0.19 0.21 0.20 0.20 0.17 0.14 0.11 0.12 0.13 0.09 0.05 0.07 0.06 0.06 0.07 0.06 0.07 0.06 0.05
0.00 0.00 0.00 0.00 0.00 0.00 0.00 0.01 0.01 0.00 0.01 0.01 0.01 0.01 0.01 0.02 0.02 0.03 0.05 0.06 0.07 0.09 0.12 0.13 0.13 0.14 0.15 0.15 0.16 0.15 0.12 0.10 0.09 0.08 0.05 0.07 0.07 0.06 0.06 0.07 0.07 0.06 0.05
0.00 0.00 0.00 0.00 0.00 0.00 0.00 0.01 0.01 0.00 0.01 0.01 0.01 0.02 0.02 0.02 0.01 0.02 0.03 0.03 0.04 0.05 0.06 0.08 0.10 0.11 0.14 0.16 0.18 0.17 0.14 0.11 0.10 0.09 0.06 0.06 0.06 0.06 0.06 0.06 0.07 0.05 0.04
0.00 0.00 0.00 0.00 0.00 0.00 0.00 0.01 0.01 0.01 0.01 0.01 0.02 0.03 0.02 0.01 0.02 0.02 0.03 0.03 0.04 0.05 0.05 0.07 0.09 0.11 0.12 0.15 0.18 0.19 0.15 0.12 0.10 0.09 0.06 0.05 0.05 0.05 0.05 0.05 0.05 0.04 0.03
0.00 0.00 0.00 0.00 0.00 0.00 0.00 0.01 0.02 0.02 0.01 0.01 0.02 0.04 0.04 0.03 0.02 0.03 0.05 0.05 0.04 0.05 0.04 0.05 0.07 0.10 0.11 0.13 0.17 0.17 0.16 0.12 0.08 0.08 0.07 0.04 0.03 0.03 0.04 0.04 0.03 0.02 0.01
MSLP
1013.93 1013.89 1013.83 1013.80 1013.82 1013.93 1014.13 1014.42 1014.74 1015.07 1015.35 1015.53 1015.62 1015.63 1015.58 1015.51 1015.48 1015.51 1015.61 1015.78 1016.00 1016.23 1016.46 1016.66 1016.82 1016.96 1017.07 1017.18 1017.29 1017.41 1017.55 1017.70 1017.86 1018.03 1018.22 1018.43 1018.66 1018.92 1019.18 1019.45 1019.68 1019.87 1020.01
1013.58 1013.50 1013.43 1013.38 1013.42 1013.54 1013.77 1014.07 1014.42 1014.77 1015.07 1015.28 1015.39 1015.41 1015.36 1015.30 1015.25 1015.26 1015.34 1015.49 1015.71 1015.96 1016.22 1016.48 1016.71 1016.91 1017.09 1017.24 1017.38 1017.51 1017.64 1017.77 1017.91 1018.07 1018.26 1018.48 1018.74 1019.02 1019.32 1019.61 1019.86 1020.05 1020.18
1013.25 1013.14 1013.06 1013.04 1013.09 1013.23 1013.47 1013.79 1014.15 1014.50 1014.81 1015.03 1015.15 1015.18 1015.14 1015.08 1015.02 1015.00 1015.05 1015.18 1015.37 1015.62 1015.91 1016.21 1016.50 1016.77 1017.02 1017.23 1017.41 1017.57 1017.69 1017.81 1017.94 1018.08 1018.26 1018.49 1018.75 1019.06 1019.37 1019.68 1019.94 1020.15 1020.28
1012.96 1012.85 1012.79 1012.78 1012.86 1013.02 1013.27 1013.59 1013.93 1014.28 1014.57 1014.79 1014.92 1014.96 1014.94 1014.87 1014.80 1014.76 1014.78 1014.87 1015.03 1015.26 1015.55 1015.87 1016.21 1016.54 1016.85 1017.13 1017.36 1017.54 1017.69 1017.81 1017.93 1018.06 1018.22 1018.44 1018.71 1019.01 1019.34 1019.65 1019.93 1020.14 1020.29
1012.75 1012.66 1012.61 1012.63 1012.72 1012.90 1013.14 1013.44 1013.76 1014.08 1014.35 1014.56 1014.70 1014.75 1014.75 1014.70 1014.63 1014.58 1014.57 1014.62 1014.74 1014.93 1015.20 1015.52 1015.88 1016.25 1016.61 1016.94 1017.22 1017.45 1017.62 1017.75 1017.87 1018.00 1018.15 1018.36 1018.61 1018.91 1019.24 1019.55 1019.82 1020.04 1020.19
1012.63 1012.53 1012.51 1012.55 1012.65 1012.83 1013.05 1013.31 1013.59 1013.87 1014.11 1014.32 1014.46 1014.55 1014.58 1014.57 1014.53 1014.48 1014.45 1014.46 1014.53 1014.68 1014.90 1015.19 1015.54 1015.92 1016.31 1016.68 1017.01 1017.27 1017.48 1017.64 1017.77 1017.89 1018.05 1018.25 1018.49 1018.78 1019.09 1019.39 1019.66 1019.88 1020.03
1012.56 1012.47 1012.45 1012.49 1012.60 1012.75 1012.94 1013.15 1013.38 1013.61 1013.83 1014.03 1014.19 1014.33 1014.41 1014.46 1014.47 1014.45 1014.43 1014.42 1014.44 1014.53 1014.69 1014.93 1015.24 1015.61 1016.00 1016.38 1016.73 1017.03 1017.27 1017.46 1017.61 1017.76 1017.93 1018.13 1018.37 1018.64 1018.93 1019.22 1019.48 1019.69 1019.85
1012.54 1012.42 1012.39 1012.42 1012.50 1012.62 1012.76 1012.92 1013.08 1013.26 1013.46 1013.66 1013.86 1014.05 1014.22 1014.35 1014.44 1014.48 1014.48 1014.46 1014.46 1014.49 1014.59 1014.76 1015.01 1015.33 1015.68 1016.05 1016.41 1016.73 1017.00 1017.22 1017.41 1017.59 1017.78 1017.99 1018.24 1018.52 1018.80 1019.08 1019.32 1019.53 1019.69
1012.54 1012.39 1012.32 1012.32 1012.36 1012.42 1012.49 1012.58 1012.69 1012.82 1012.99 1013.19 1013.43 1013.69 1013.95 1014.18 1014.37 1014.48 1014.54 1014.55 1014.53 1014.53 1014.56 1014.66 1014.84 1015.08 1015.39 1015.73 1016.06 1016.38 1016.67 1016.92 1017.15 1017.37 1017.60 1017.85 1018.12 1018.41 1018.70 1018.97 1019.22 1019.42 1019.58
1012.57 1012.37 1012.25 1012.19 1012.17 1012.16 1012.16 1012.17 1012.21 1012.28 1012.42 1012.62 1012.90 1013.22 1013.56 1013.89 1014.18 1014.39 1014.52 1014.57 1014.57 1014.55 1014.54 1014.58 1014.69 1014.87 1015.11 1015.39 1015.70 1016.00 1016.29 1016.57 1016.83 1017.10 1017.37 1017.67 1017.98 1018.31 1018.62 1018.91 1019.16 1019.37 1019.53
1012.65 1012.39 1012.20 1012.08 1011.98 1011.89 1011.81 1011.74 1011.69 1011.70 1011.79 1011.98 1012.26 1012.62 1013.03 1013.45 1013.82 1014.12 1014.33 1014.44 1014.48 1014.47 1014.46 1014.46 1014.52 1014.64 1014.82 1015.05 1015.32 1015.59 1015.88 1016.17 1016.46 1016.77 1017.10 1017.45 1017.82 1018.18 1018.53 1018.85 1019.13 1019.35 1019.52
1012.81 1012.48 1012.23 1012.03 1011.86 1011.69 1011.52 1011.35 1011.22 1011.14 1011.17 1011.30 1011.56 1011.92 1012.36 1012.82 1013.26 1013.64 1013.92 1014.11 1014.20 1014.23 1014.24 1014.24 1014.28 1014.37 1014.51 1014.70 1014.92 1015.17 1015.45 1015.74 1016.05 1016.40 1016.77 1017.18 1017.60 1018.02 1018.42 1018.78 1019.08 1019.32 1019.52
1013.06 1012.69 1012.38 1012.11 1011.86 1011.60 1011.34 1011.07 1010.84 1010.67 1010.60 1010.65 1010.85 1011.17 1011.58 1012.05 1012.52 1012.94 1013.28 1013.54 1013.70 1013.80 1013.85 1013.89 1013.95 1014.03 1014.16 1014.32 1014.52 1014.75 1015.01 1015.30 1015.63 1016.00 1016.41 1016.86 1017.33 1017.80 1018.24 1018.65 1018.99 1019.26 1019.48
1013.41 1013.00 1012.64 1012.32 1011.99 1011.66 1011.31 1010.95 1010.61 1010.33 1010.15 1010.09 1010.19 1010.42 1010.77 1011.20 1011.65 1012.08 1012.46 1012.77 1013.01 1013.17 1013.30 1013.41 1013.51 1013.63 1013.77 1013.94 1014.13 1014.35 1014.60 1014.88 1015.22 1015.60 1016.03 1016.51 1017.02 1017.53 1018.01 1018.45 1018.83 1019.14 1019.38
1013.81 1013.39 1013.00 1012.63 1012.26 1011.86 1011.43 1010.98 1010.54 1010.15 1009.86 1009.68 1009.66 1009.77 1010.02 1010.36 1010.76 1011.17 1011.56 1011.90 1012.19 1012.43 1012.64 1012.82 1012.99 1013.17 1013.36 1013.55 1013.76 1013.98 1014.24 1014.52 1014.86 1015.25 1015.69 1016.19 1016.71 1017.24 1017.76 1018.22 1018.63 1018.96 1019.23
1014.22 1013.80 1013.41 1013.02 1012.61 1012.16 1011.67 1011.16 1010.63 1010.15 1009.74 1009.45 1009.30 1009.29 1009.42 1009.65 1009.97 1010.32 1010.69 1011.03 1011.36 1011.65 1011.93 1012.19 1012.44 1012.69 1012.94 1013.18 1013.43 1013.68 1013.95 1014.24 1014.59 1014.98 1015.43 1015.93 1016.46 1016.99 1017.51 1017.99 1018.41 1018.76 1019.04
1014.57 1014.17 1013.79 1013.39 1012.97 1012.50 1011.98 1011.41 1010.83 1010.28 1009.79 1009.40 1009.14 1009.02 1009.03 1009.16 1009.38 1009.65 1009.96 1010.29 1010.61 1010.94 1011.26 1011.58 1011.90 1012.22 1012.53 1012.84 1013.14 1013.44 1013.74 1014.07 1014.43 1014.84 1015.29 1015.78 1016.31 1016.84 1017.35 1017.82 1018.23 1018.58 1018.87
1014.83 1014.46 1014.09 1013.71 1013.29 1012.81 1012.27 1011.69 1011.09 1010.50 1009.96 1009.51 1009.18 1008.97 1008.89 1008.92 1009.04 1009.23 1009.47 1009.74 1010.04 1010.35 1010.69 1011.04 1011.41 1011.78 1012.16 1012.53 1012.90 1013.26 1013.62 1014.00 1014.39 1014.82 1015.29 1015.79 1016.30 1016.81 1017.30 1017.75 1018.15 1018.49 1018.77
1014.97 1014.64 1014.30 1013.93 1013.52 1013.05 1012.53 1011.95 1011.35 1010.76 1010.21 1009.74 1009.37 1009.12 1008.97 1008.93 1008.96 1009.07 1009.23 1009.43 1009.67 1009.95 1010.26 1010.61 1010.99 1011.40 1011.83 1012.26 1012.70 1013.13 1013.57 1014.01 1014.46 1014.93 1015.42 1015.93 1016.44 1016.93 1017.40 1017.82 1018.19 1018.51 1018.79
1015.03 1014.73 1014.41 1014.07 1013.68 1013.23 1012.72 1012.16 1011.59 1011.02 1010.49 1010.04 1009.67 1009.40 1009.22 1009.13 1009.11 1009.14 1009.22 1009.34 1009.50 1009.71 1009.97 1010.29 1010.65 1011.08 1011.53 1012.02 1012.52 1013.03 1013.55 1014.07 1014.60 1015.13 1015.66 1016.19 1016.71 1017.19 1017.64 1018.04 1018.38 1018.67 1018.93
1015.04 1014.77 1014.49 1014.16 1013.78 1013.35 1012.86 1012.33 1011.79 1011.26 1010.77 1010.36 1010.02 1009.76 1009.58 1009.47 1009.40 1009.37 1009.37 1009.41 1009.48 1009.61 1009.80 1010.06 1010.39 1010.80 1011.28 1011.80 1012.36 1012.95 1013.55 1014.15 1014.76 1015.36 1015.95 1016.52 1017.05 1017.54 1017.98 1018.36 1018.68 1018.95 1019.19
1015.07 1014.83 1014.56 1014.25 1013.89 1013.47 1012.99 1012.49 1011.97 1011.48 1011.04 1010.67 1010.37 1010.14 1009.97 1009.85 1009.75 1009.68 1009.62 1009.57 1009.57 1009.61 1009.71 1009.91 1010.20 1010.58 1011.05 1011.60 1012.21 1012.86 1013.53 1014.22 1014.91 1015.58 1016.23 1016.85 1017.41 1017.92 1018.37 1018.74 1019.05 1019.31 1019.54
1015.14 1014.93 1014.68 1014.38 1014.03 1013.61 1013.14 1012.64 1012.15 1011.69 1011.28 1010.95 1010.68 1010.48 1010.33 1010.21 1010.11 1010.00 1009.88 1009.77 1009.69 1009.66 1009.69 1009.82 1010.06 1010.41 1010.88 1011.43 1012.07 1012.77 1013.50 1014.25 1015.01 1015.75 1016.45 1017.12 1017.72 1018.26 1018.73 1019.11 1019.43 1019.70 1019.93
1015.27 1015.09 1014.86 1014.57 1014.21 1013.79 1013.32 1012.82 1012.34 1011.89 1011.51 1011.20 1010.96 1010.78 1010.65 1010.53 1010.41 1010.28 1010.13 1009.97 1009.84 1009.74 1009.72 1009.80 1009.99 1010.32 1010.76 1011.32 1011.96 1012.68 1013.45 1014.25 1015.04 1015.83 1016.58 1017.28 1017.92 1018.50 1019.00 1019.42 1019.77 1020.06 1020.31
1015.42 1015.27 1015.06 1014.78 1014.42 1014.00 1013.52 1013.02 1012.54 1012.10 1011.72 1011.43 1011.20 1011.03 1010.90 1010.79 1010.66 1010.51 1010.34 1010.16 1009.99 1009.86 1009.81 1009.85 1010.01 1010.30 1010.73 1011.27 1011.91 1012.63 1013.40 1014.20 1015.01 1015.81 1016.58 1017.31 1017.99 1018.60 1019.14 1019.61 1020.00 1020.33 1020.63
1015.55 1015.43 1015.25 1014.97 1014.62 1014.20 1013.72 1013.22 1012.74 1012.30 1011.93 1011.64 1011.42 1011.26 1011.13 1011.01 1010.88 1010.72 1010.54 1010.35 1010.17 1010.03 1009.96 1009.98 1010.13 1010.40 1010.80 1011.32 1011.93 1012.62 1013.37 1014.14 1014.93 1015.72 1016.49 1017.23 1017.92 1018.56 1019.14 1019.66 1020.11 1020.50 1020.85
Thickness
5744 5745 5746 5747 5748 5749 5749 5750 5750 5751 5751 5751 5751 5751 5752 5753 5754 5755 5756 5757 5757 5756 5756 5755 5755 5754 5754 5754 5754 5753 5753 5752 5751 5750 5749 5748 5747 5746 5744 5743 5742 5741 5741
5739 5741 5743 5744 5746 5746 5747 5747 5748 5748 5748 5749 5749 5750 5751 5752 5754 5755 5756 5757 5757 5757 5756 5755 5755 5754 5754 5754 5753 5753 5752 5752 5751 5750 5748 5747 5746 5745 5743 5742 5741 5740 5739
5733 5735 5738 5740 5741 5743 5744 5744 5744 5744 5744 5745 5746 5747 5749 5751 5752 5754 5755 5756 5757 5756 5756 5755 5754 5754 5753 5753 5753 5753 5752 5751 5750 5749 5748 5746 5745 5744 5742 5741 5740 5738 5737
5726 5729 5731 5734 5736 5738 5739 5740 5740 5740 5740 5740 5742 5744 5747 5749 5751 5753 5754 5755 5755 5755 5755 5754 5753 5753 5752 5752 5752 5752 5751 5750 5749 5748 5747 5746 5744 5743 5741 5740 5738 5737 5736
5718 5721 5724 5727 5730 5732 5734 5736 5737 5736 5734 5734 5737 5740 5743 5745 5748 5750 5752 5753 5754 5754 5753 5753 5752 5751 5751 5751 5751 5751 5750 5749 5748 5747 5746 5744 5743 5742 5740 5739 5737 5736 5734
5710 5713 5717 5719 5722 5724 5727 5729 5730 5732 5731 5731 5732 5735 5738 5741 5744 5746 5749 5750 5751 5751 5751 5750 5750 5750 5749 5749 5749 5749 5748 5748 5747 5746 5744 5743 5742 5741 5739 5737 5736 5734 5733
5702 5706 5709 5712 5714 5717 5720 5723 5723 5725 5726 5726 5724 5724 5729 5735 5738 5742 5744 5746 5747 5748 5747 5747 5747 5747 5747 5747 5746 5746 5746 5746 5745 5744 5743 5742 5740 5739 5737 5736 5734 5733 5732
5693 5698 5701 5704 5706 5709 5712 5715 5716 5717 5720 5721 5719 5715 5715 5721 5730 5736 5738 5740 5742 5743 5744 5744 5744 5744 5744 5744 5744 5744 5744 5743 5743 5742 5741 5740 5739 5737 5735 5734 5732 5731 5729
5684 5688 5692 5695 5699 5702 5705 5707 5710 5711 5711 5714 5717 5714 5710 5711 5718 5725 5731 5735 5737 5738 5740 5741 5741 5742 5741 5741 5741 5741 5741 5741 5740 5740 5739 5738 5737 5735 5733 5731 5730 5728 5727
5675 5679 5683 5687 5691 5694 5698 5701 5704 5705 5706 5706 5709 5712 5714 5715 5712 5714 5720 5726 5730 5733 5735 5737 5738 5739 5739 5739 5739 5739 5738 5738 5737 5737 5737 5735 5734 5732 5731 5729 5727 5725 5723
5668 5671 5675 5679 5683 5687 5690 5694 5697 5700 5702 5703 5704 5705 5706 5708 5710 5709 5710 5715 5721 5727 5730 5733 5734 5736 5736 5736 5736 5736 5736 5735 5735 5734 5733 5733 5731 5730 5728 5726 5724 5722 5720
5660 5664 5668 5671 5675 5679 5683 5687 5690 5693 5696 5699 5700 5702 5703 5703 5705 5706 5706 5708 5712 5718 5723 5727 5730 5732 5733 5733 5733 5734 5733 5733 5732 5731 5730 5729 5728 5726 5725 5722 5721 5718 5716
5652 5655 5658 5662 5666 5670 5675 5679 5682 5686 5690 5693 5695 5698 5700 5703 5705 5704 5703 5704 5705 5710 5715 5720 5725 5727 5729 5729 5730 5731 5731 5730 5729 5728 5727 5726 5725 5723 5721 5719 5717 5715 5713
5644 5647 5650 5653 5657 5661 5665 5669 5674 5678 5683 5686 5689 5691 5694 5697 5700 5701 5702 5700 5698 5701 5706 5712 5718 5722 5724 5726 5727 5727 5727 5727 5726 5725 5724 5723 5721 5719 5717 5715 5713 5711 5709
5639 5640 5643 5645 5648 5651 5655 5659 5664 5668 5673 5677 5681 5684 5687 5691 5693 5697 5699 5700 5697 5696 5700 5707 5711 5717 5719 5721 5722 5722 5723 5723 5722 5721 5720 5718 5716 5715 5713 5711 5709 5707 5705
5634 5636 5637 5639 5641 5644 5647 5651 5655 5659 5663 5667 5671 5675 5678 5682 5686 5690 5693 5695 5697 5696 5697 5703 5706 5710 5713 5715 5717 5717 5718 5718 5718 5717 5715 5714 5712 5710 5708 5706 5704 5702 5700
5630 5631 5632 5633 5634 5636 5639 5642 5646 5649 5653 5656 5661 5665 5669 5673 5677 5681 5685 5688 5690 5692 5692 5696 5699 5703 5705 5708 5710 5711 5712 5712 5712 5712 5710 5708 5706 5704 5702 5701 5699 5697 5694
5627 5626 5627 5627 5628 5630 5632 5635 5637 5640 5643 5646 5650 5654 5659 5664 5667 5672 5675 5680 5683 5686 5687 5688 5692 5695 5698 5701 5703 5704 5705 5706 5706 5706 5704 5702 5700 5698 5696 5694 5692 5690 5688
5624 5623 5622 5622 5623 5624 5626 5628 5630 5632 5634 5637 5640 5644 5649 5653 5657 5662 5667 5672 5676 5679 5681 5683 5685 5688 5690 5693 5695 5696 5697 5698 5698 5698 5697 5695 5693 5691 5689 5688 5686 5684 5681
5621 5619 5618 5617 5617 5618 5620 5622 5624 5625 5627 5629 5632 5636 5639 5643 5648 5653 5658 5663 5668 5670 5674 5677 5679 5681 5684 5686 5688 5689 5688 5689 5690 5690 5689 5688 5686 5684 5682 5681 5679 5677 5674
5620 5616 5614 5613 5612 5613 5615 5616 5617 5618 5619 5622 5625 5628 5631 5636 5641 5646 5651 5655 5659 5663 5667 5669 5672 5675 5678 5679 5681 5683 5682 5681 5680 5681 5680 5678 5678 5676 5674 5673 5671 5669 5666
5617 5614 5611 5608 5607 5607 5608 5610 5611 5610 5612 5614 5617 5621 5625 5629 5634 5639 5645 5650 5654 5657 5660 5664 5667 5669 5672 5674 5675 5676 5676 5674 5671 5672 5672 5668 5669 5668 5666 5665 5663 5661 5658
5616 5612 5608 5605 5602 5601 5602 5603 5604 5603 5604 5607 5609 5613 5618 5622 5626 5631 5637 5642 5647 5652 5656 5660 5662 5664 5667 5670 5670 5669 5669 5668 5667 5665 5664 5659 5659 5658 5657 5656 5655 5653 5650
5615 5610 5606 5602 5599 5597 5597 5597 5597 5595 5597 5599 5602 5605 5609 5614 5619 5624 5630 5634 5639 5644 5649 5654 5657 5660 5662 5664 5666 5665 5664 5660 5657 5655 5656 5651 5648 5647 5646 5645 5645 5643 5641
5615 5610 5605 5600 5596 5592 5591 5591 5591 5588 5589 5591 5595 5599 5603 5608 5614 5619 5623 5627 5632 5637 5642 5647 5651 5654 5657 5659 5660 5658 5655 5654 5649 5645 5646 5645 5639 5637 5634 5633 5633 5633 5632
5615 5610 5605 5600 5594 5589 5588 5587 5585 5581 5582 5584 5589 5593 5598 5603 5609 5613 5617 5621 5626 5630 5636 5640 5644 5647 5650 5651 5653 5655 5654 5651 5646 5640 5639 5639 5634 5631 5625 5622 5623 5623 5623